"Pseudo-MPEC" for P21BM9w

Created 2022 Nov 26 18:22:21 UT using Find_Orb

Click here for an explanation of pseudo-MPECs

 
 Astrometry: 
     P21BM9w* C2022 11 168vHiu7Q3huOO]`gIdQt21H'9sb7Y6VrfX;aIlulg$A%.((`#:K%BF52
     P21BM9w  C2022 11 16xviAstrometryUpredacted;y'\WCw[5clickrMWPn6o#Q=ulBh`F52
     P21BM9w  C2022 11 16Sd@Bs6B!LSxI4gBaxL04Ag-M^(?]a@6%:XxPTSV.Q%v?!8=N,Ii9F52
     P21BM9w  C2022 11 16vMAo-$0'n5AM4K[hereA'Cs,@lb2/64;9W.j**9k.JrW_9*Mfor?F52
     P21BM9w  C2022 11 16oEcB+]4mIw]]mQn!Ax+4in^;Kx./%LNtq7pVN*Jw\a4O8(*3Z6H#F51
     P21BM9w  C2022 11 16^`/^LdexplanationxF8I8/fm*)ERX^5=KoSss747rdr6r)@08FQF51

Station data:
(F51) Pan-STARRS 1, Haleakala  (N20.707234 W156.255910)  US/Hawaii.
   Observers J. Bulger, T. Lowe, A. Schultz, M. Willman. Measurers K.
   Chambers, S. Chastel, T. de Boer, L. Denneau, J. Fairlamb, H. Flewelling,
   M. Huber, C.-C. Lin, E. Magnier, Y. Ramanjooloo, R. Wainscoat, R. Weryk.
   1.8-m Ritchey-Chrétien + CCD.
(F52) Pan-STARRS 2, Haleakala  (N20.707382 W156.255910)  US/Hawaii.
   Observers J. Bulger, T. Dukes, T. Lowe, A. Schultz, M. Willman. Measurers
   K. Chambers, S. Chastel, T. de Boer, L. Denneau, J. Fairlamb, H.
   Flewelling, M. Huber, C.-C. Lin, E. Magnier, Y. Ramanjooloo, R. Wainscoat,
   R. Weryk. 1.8-m Ritchey-Chrétien + CCD.

Orbital elements:  P21BM9w
   Perihelion 2022 Oct 4.52186 +/- 9.12 TT = 12:31:28 (JD 2459857.02186)
Epoch 2022 Nov 16.0 TT = JDT 2459899.5   Earth MOID: 0.0016   Ju: 0.5746
M   8.82128216 +/- 24               Ve: 0.0667   Ma: 0.0257   AutoNEOCP
n   0.20766639 +/- 0.533            Peri.  117.78520 +/- 7
a   2.82417689 +/- 4.84             Node   227.29419 +/- 3.8
e   0.7358533 +/- 0.497             Incl.    1.86772 +/- 1.5
P   4.75                   H 28.1   G  0.15   U 12.3
q 0.74599692 +/- 0.127    Q 4.90235686 +/- 9.8            (J2000 ecliptic)
From 6 observations 2022 Nov. 16 (4.3 hr); mean residual 0".10
Residuals in arcseconds: 
221116 F52  .04-  .15-    221116 F52  .05-  .12+    221116 F51  .03+  .10+    
221116 F52  .08+  .19+    221116 F52  .01+  .17-    221116 F51  .03-  .09-    

Ephemerides (geocentric):
Date (UTC) HH   RA             Dec           delta  r     elong  mag " sig PA
---- --------  ------------   ------------  ------ ------ -----  --- --------
2022 11 26 18  04 06 22.364   +16 41 40.96  .14763 1.1342 175.7 24.6 1573  36
2022 11 26 19  04 06 22.404   +16 41 50.45  .14809 1.1347 175.7 24.6 1576  36
2022 11 26 20  04 06 22.445   +16 41 59.90  .14856 1.1351 175.7 24.6 1578  36
2022 11 26 21  04 06 22.485   +16 42 09.32  .14902 1.1356 175.7 24.6 1581  36
2022 11 26 22  04 06 22.525   +16 42 18.69  .14949 1.1360 175.6 24.6 1583  36
2022 11 26 23  04 06 22.566   +16 42 28.03  .14996 1.1365 175.6 24.6 1585  36
2022 11 27 00  04 06 22.607   +16 42 37.32  .15042 1.1369 175.6 24.6 1588  36
2022 11 27 01  04 06 22.648   +16 42 46.58  .15089 1.1374 175.6 24.7 1590  36
2022 11 27 02  04 06 22.689   +16 42 55.81  .15135 1.1379 175.6 24.7 1592  36
2022 11 27 03  04 06 22.730   +16 43 04.99  .15182 1.1383 175.6 24.7 1595  36
2022 11 27 04  04 06 22.772   +16 43 14.14  .15229 1.1388 175.6 24.7 1597  35
2022 11 27 05  04 06 22.814   +16 43 23.26  .15275 1.1392 175.6 24.7 1599  35
2022 11 27 06  04 06 22.856   +16 43 32.34  .15322 1.1397 175.5 24.7 1601  35
2022 11 27 07  04 06 22.898   +16 43 41.38  .15369 1.1401 175.5 24.7 1604  35
2022 11 27 08  04 06 22.941   +16 43 50.39  .15415 1.1406 175.5 24.7 1606  35
2022 11 27 09  04 06 22.984   +16 43 59.36  .15462 1.1410 175.5 24.7 1608  35
2022 11 27 10  04 06 23.027   +16 44 08.30  .15509 1.1415 175.5 24.7 1610  35
2022 11 27 11  04 06 23.070   +16 44 17.21  .15555 1.1420 175.5 24.7 1613  35
2022 11 27 12  04 06 23.114   +16 44 26.08  .15602 1.1424 175.4 24.7 1615  35
2022 11 27 13  04 06 23.158   +16 44 34.92  .15649 1.1429 175.4 24.8 1617  35
2022 11 27 14  04 06 23.203   +16 44 43.73  .15696 1.1433 175.4 24.8 1619  35
2022 11 27 15  04 06 23.248   +16 44 52.50  .15743 1.1438 175.4 24.8 1621  35
2022 11 27 16  04 06 23.293   +16 45 01.24  .15789 1.1442 175.4 24.8 1623  35
2022 11 27 17  04 06 23.339   +16 45 09.95  .15836 1.1447 175.4 24.8 1626  35
2022 11 27 18  04 06 23.385   +16 45 18.63  .15883 1.1451 175.3 24.8 1628  35
2022 11 27 19  04 06 23.431   +16 45 27.28  .15930 1.1456 175.3 24.8 1630  35
2022 11 27 20  04 06 23.478   +16 45 35.90  .15977 1.1461 175.3 24.8 1632  35
2022 11 27 21  04 06 23.525   +16 45 44.49  .16024 1.1465 175.3 24.8 1634  35
2022 11 27 22  04 06 23.573   +16 45 53.05  .16070 1.1470 175.3 24.8 1636  35
2022 11 27 23  04 06 23.621   +16 46 01.57  .16117 1.1474 175.2 24.8 1638  35
2022 11 28 00  04 06 23.669   +16 46 10.07  .16164 1.1479 175.2 24.8 1640  35
2022 11 28 01  04 06 23.718   +16 46 18.54  .16211 1.1483 175.2 24.9 1643  35
2022 11 28 02  04 06 23.768   +16 46 26.98  .16258 1.1488 175.2 24.9 1645  35
2022 11 28 03  04 06 23.818   +16 46 35.40  .16305 1.1493 175.2 24.9 1647  35
2022 11 28 04  04 06 23.869   +16 46 43.78  .16352 1.1497 175.1 24.9 1649  35
2022 11 28 05  04 06 23.920   +16 46 52.14  .16399 1.1502 175.1 24.9 1651  35
2022 11 28 06  04 06 23.971   +16 47 00.47  .16446 1.1506 175.1 24.9 1653  35
2022 11 28 07  04 06 24.023   +16 47 08.77  .16493 1.1511 175.1 24.9 1655  35
2022 11 28 08  04 06 24.076   +16 47 17.04  .16540 1.1515 175.0 24.9 1657  35
2022 11 28 09  04 06 24.129   +16 47 25.29  .16587 1.1520 175.0 24.9 1659  35
2022 11 28 10  04 06 24.183   +16 47 33.51  .16634 1.1524 175.0 24.9 1661  35
2022 11 28 11  04 06 24.237   +16 47 41.70  .16681 1.1529 175.0 24.9 1663  35
2022 11 28 12  04 06 24.292   +16 47 49.87  .16728 1.1534 175.0 24.9 1665  35
2022 11 28 13  04 06 24.348   +16 47 58.02  .16775 1.1538 174.9 24.9 1667  35
2022 11 28 14  04 06 24.404   +16 48 06.13  .16822 1.1543 174.9 25.0 1669  35
2022 11 28 15  04 06 24.460   +16 48 14.23  .16870 1.1547 174.9 25.0 1671  35
2022 11 28 16  04 06 24.518   +16 48 22.30  .16917 1.1552 174.9 25.0 1673  35
2022 11 28 17  04 06 24.576   +16 48 30.34  .16964 1.1556 174.8 25.0 1675  35